Perryton, TX

1:18 AM CDT on April 24, 2017 (GMT -0500)
Perryton Ochiltree County

Weather History for KPYX - July, 2013

Change the Weather History Date:

Thursday, July 18, 2013

  Actual Average Record
Temperature  
Mean Temperature 76 °F -  
Max Temperature 87 °F 94 °F 105 °F (1971)
Min Temperature 64 °F 65 °F 58 °F (1984)
Cooling Degree Days 10    
Growing Degree Days 26 (Base 50)    
Moisture  
Dew Point 64 °F    
Average Humidity 72    
Maximum Humidity 97    
Minimum Humidity 39    
Precipitation  
Precipitation 0.00 in - - ()
Sea Level Pressure  
Sea Level Pressure 30.19 in    
Wind  
Wind Speed 12 mph (South)    
Max Wind Speed 24 mph    
Max Gust Speed 30 mph    
Visibility 9 miles    
Events      
Averages and records for this station are not official NWS values.
T = Trace of Precipitation, MM = Missing Value Source: NWS Daily Summary

Daily Weather History Graph

Daily Weather History Graph

Search for Another Location

Airport or City:

Trip Planner

Search our weather history database for the weather conditions in past years. The results will help you decide how hot, cold, wet, or windy it might be!

Date:

Astronomy

Jul. 18, 2013 Rise Set
Actual Time 6:39 AM CDT 8:59 PM CDT
Civil Twilight 6:09 AM CDT 9:28 PM CDT
Nautical Twilight 5:33 AM CDT 10:04 PM CDT
Astronomical Twilight 4:53 AM CDT 10:44 PM CDT
Moon 4:58 PM CDT (7/18) 2:29 AM CDT (7/18)
Length of Visible Light 15h 19m
Length of Day
14h 20m
Waxing Gibbous, 77% of the Moon is Illuminated
Jul 18
Waxing Gibbous
Jul 22
Full
Jul 29
Last Quarter
Aug 6
New
Aug 14
First Quarter

Hourly Weather History & Observations

Time (CDT) Temp. Heat Index Dew Point Humidity Pressure Visibility Wind Dir Wind Speed Gust Speed Precip Events Conditions
12:15 AM 67.1 °F - 65.3 °F 94% 30.29 in 10.0 mi South 8.1 mph - N/A   Clear
12:35 AM 67.1 °F - 65.3 °F 94% 30.28 in 10.0 mi South 8.1 mph - N/A   Clear
12:55 AM 67.1 °F - 65.3 °F 94% 30.28 in 10.0 mi South 8.1 mph - N/A   Clear
1:15 AM 66.7 °F - 65.3 °F 95% 30.28 in 10.0 mi South 5.8 mph - N/A   Clear
1:35 AM 66.2 °F - 64.8 °F 95% 30.28 in 10.0 mi South 5.8 mph - N/A   Clear
1:55 AM 66.6 °F - 65.3 °F 96% 30.27 in 10.0 mi SSW 8.1 mph - N/A   Clear
2:15 AM 67.1 °F - 65.3 °F 94% 30.27 in 10.0 mi SSW 9.2 mph - N/A   Clear
2:35 AM 66.6 °F - 65.3 °F 96% 30.27 in 10.0 mi SSW 6.9 mph - N/A   Clear
2:55 AM 66.2 °F - 64.6 °F 94% 30.26 in 10.0 mi South 5.8 mph - N/A   Clear
3:15 AM 65.8 °F - 64.4 °F 95% 30.26 in 10.0 mi SSW 5.8 mph - N/A   Clear
3:35 AM 65.3 °F - 64.0 °F 96% 30.27 in 7.0 mi South 5.8 mph - N/A   Clear
3:55 AM 64.8 °F - 63.7 °F 96% 30.26 in 5.0 mi SSE 6.9 mph - N/A   Clear
4:15 AM 64.6 °F - 63.7 °F 97% 30.25 in 5.0 mi SSE 4.6 mph - N/A   Clear
4:35 AM 64.6 °F - 63.7 °F 97% 30.25 in 5.0 mi SE 4.6 mph - N/A   Clear
4:55 AM 64.8 °F - 63.9 °F 97% 30.25 in 5.0 mi SE 5.8 mph - N/A   Clear
5:15 AM 64.4 °F - 63.5 °F 97% 30.25 in 4.0 mi SSE 6.9 mph - N/A   Scattered Clouds
5:35 AM 64.9 °F - 64.0 °F 97% 30.25 in 4.0 mi South 6.9 mph - N/A   Scattered Clouds
5:55 AM 64.6 °F - 63.7 °F 97% 30.26 in 4.0 mi SSE 8.1 mph - N/A   Clear
6:15 AM 64.4 °F - 63.5 °F 97% 30.26 in 3.0 mi South 5.8 mph - N/A   Clear
6:35 AM 64.6 °F - 63.7 °F 97% 30.26 in 3.0 mi SSE 4.6 mph - N/A   Scattered Clouds
6:55 AM 66.2 °F - 65.3 °F 97% 30.25 in 0.2 mi South 10.4 mph - N/A   Overcast
7:15 AM 67.1 °F - 66.2 °F 97% 30.25 in 1.8 mi South 11.5 mph 17.3 mph N/A   Overcast
7:35 AM 67.3 °F - 66.4 °F 97% 30.25 in 2.5 mi South 11.5 mph - N/A   Overcast
7:55 AM 67.6 °F - 66.7 °F 97% 30.25 in 3.0 mi SSE 11.5 mph - N/A   Overcast
8:15 AM 68.2 °F - 67.3 °F 97% 30.24 in 4.0 mi South 10.4 mph - N/A   Overcast
8:35 AM 68.9 °F - 67.5 °F 95% 30.25 in 7.0 mi South 15.0 mph - N/A   Overcast
8:55 AM 69.8 °F - 67.1 °F 91% 30.25 in 10.0 mi South 16.1 mph - N/A   Overcast
9:15 AM 70.7 °F - 66.9 °F 88% 30.25 in 10.0 mi South 13.8 mph - N/A   Overcast
9:35 AM 72.1 °F - 65.5 °F 79% 30.25 in 10.0 mi South 17.3 mph - N/A   Mostly Cloudy
9:55 AM 72.9 °F - 65.5 °F 78% 30.24 in 10.0 mi South 18.4 mph 21.9 mph N/A   Scattered Clouds
10:15 AM 74.5 °F - 65.7 °F 74% 30.24 in 10.0 mi South 18.4 mph - N/A   Clear
10:35 AM 75.6 °F - 65.3 °F 70% 30.24 in 10.0 mi South 18.4 mph 23.0 mph N/A   Mostly Cloudy
10:55 AM 76.1 °F - 65.1 °F 69% 30.23 in 10.0 mi South 18.4 mph 23.0 mph N/A   Mostly Cloudy
11:15 AM 77.2 °F - 64.2 °F 64% 30.23 in 10.0 mi South 20.7 mph 25.3 mph N/A   Mostly Cloudy
11:35 AM 75.7 °F - 63.7 °F 66% 30.23 in 10.0 mi South 18.4 mph 24.2 mph N/A   Mostly Cloudy
11:55 AM 78.1 °F - 62.8 °F 59% 30.22 in 10.0 mi South 18.4 mph 26.5 mph N/A   Mostly Cloudy
12:15 PM 78.3 °F - 63.1 °F 60% 30.21 in 10.0 mi South 18.4 mph - N/A   Mostly Cloudy
12:35 PM 81.0 °F 82.2 °F 63.0 °F 54% 30.21 in 10.0 mi SSW 17.3 mph 25.3 mph N/A   Mostly Cloudy
12:55 PM 80.8 °F 81.9 °F 62.4 °F 53% 30.20 in 10.0 mi SSW 18.4 mph 25.3 mph N/A   Mostly Cloudy
1:15 PM 83.1 °F 83.9 °F 62.2 °F 49% 30.19 in 10.0 mi South 19.6 mph 24.2 mph N/A   Scattered Clouds
1:35 PM 81.7 °F 82.6 °F 61.9 °F 51% 30.19 in 10.0 mi South 21.9 mph - N/A   Mostly Cloudy
1:55 PM 83.3 °F 83.9 °F 61.7 °F 48% 30.19 in 10.0 mi SSW 20.7 mph 26.5 mph N/A   Mostly Cloudy
2:15 PM 84.6 °F 84.8 °F 60.8 °F 45% 30.18 in 10.0 mi SSW 24.2 mph 29.9 mph N/A   Mostly Cloudy
2:35 PM 84.0 °F 84.2 °F 60.8 °F 45% 30.18 in 10.0 mi SSW 17.3 mph 26.5 mph N/A   Mostly Cloudy
2:55 PM 83.7 °F 83.9 °F 61.2 °F 46% 30.17 in 10.0 mi South 20.7 mph 26.5 mph N/A   Mostly Cloudy
3:15 PM 86.0 °F 85.7 °F 60.1 °F 41% 30.16 in 10.0 mi South 21.9 mph 26.5 mph N/A   Mostly Cloudy
3:35 PM 84.2 °F 84.2 °F 60.1 °F 44% 30.15 in 10.0 mi South 20.7 mph 26.5 mph N/A   Mostly Cloudy
3:55 PM 86.9 °F 86.7 °F 60.8 °F 41% 30.14 in 10.0 mi South 20.7 mph 26.5 mph N/A   Scattered Clouds
4:15 PM 86.0 °F 86.1 °F 61.2 °F 43% 30.14 in 10.0 mi South 20.7 mph - N/A   Scattered Clouds
5:15 PM 87.4 °F 86.9 °F 59.5 °F 39% 30.10 in 10.0 mi South 18.4 mph 26.5 mph N/A   Mostly Cloudy
5:35 PM 86.4 °F 86.1 °F 60.3 °F 41% 30.10 in 10.0 mi South 19.6 mph - N/A   Scattered Clouds
5:55 PM 86.2 °F 85.9 °F 60.3 °F 41% 30.09 in 10.0 mi South 20.7 mph 27.6 mph N/A   Scattered Clouds
6:15 PM 86.9 °F 87.0 °F 61.3 °F 42% 30.08 in 10.0 mi South 21.9 mph 27.6 mph N/A   Mostly Cloudy
6:35 PM 84.9 °F 85.2 °F 61.2 °F 45% 30.07 in 10.0 mi South 17.3 mph - N/A   Scattered Clouds
6:55 PM 84.7 °F 85.0 °F 61.2 °F 45% 30.07 in 10.0 mi South 17.3 mph - N/A   Scattered Clouds
7:15 PM 85.3 °F 85.4 °F 61.0 °F 44% 30.07 in 10.0 mi SSW 18.4 mph - N/A   Scattered Clouds
7:35 PM 84.6 °F 85.0 °F 61.9 °F 46% 30.07 in 10.0 mi South 20.7 mph - N/A   Scattered Clouds
7:55 PM 83.3 °F 84.1 °F 62.1 °F 49% 30.06 in 10.0 mi South 17.3 mph - N/A   Scattered Clouds
8:15 PM 82.4 °F 83.4 °F 62.6 °F 51% 30.07 in 10.0 mi South 17.3 mph 24.2 mph N/A   Scattered Clouds
8:35 PM 81.5 °F 82.7 °F 62.6 °F 53% 30.07 in 10.0 mi South 16.1 mph - N/A   Clear
8:55 PM 80.1 °F 81.4 °F 62.6 °F 55% 30.08 in 10.0 mi South 13.8 mph - N/A   Clear
9:15 PM 78.8 °F - 62.8 °F 58% 30.08 in 10.0 mi South 11.5 mph - N/A   Clear
9:35 PM 77.4 °F - 63.5 °F 62% 30.08 in 10.0 mi South 15.0 mph - N/A   Clear
9:55 PM 77.0 °F - 64.4 °F 65% 30.09 in 10.0 mi South 12.7 mph - N/A   Clear
10:15 PM 76.1 °F - 64.4 °F 67% 30.10 in 10.0 mi South 11.5 mph - N/A   Clear
10:35 PM 75.4 °F - 64.4 °F 69% 30.11 in 10.0 mi South 12.7 mph - N/A   Clear
10:55 PM 74.8 °F - 64.2 °F 69% 30.11 in 10.0 mi South 12.7 mph - N/A   Clear
11:15 PM 74.5 °F - 64.4 °F 71% 30.11 in 10.0 mi South 11.5 mph - N/A   Clear
11:35 PM 73.8 °F - 64.4 °F 72% 30.11 in 10.0 mi South 12.7 mph - N/A   Clear
11:55 PM 73.6 °F - 64.6 °F 73% 30.12 in 10.0 mi South 12.7 mph - N/A   Clear